Weather History for Wahoo, NE

Change the Weather History Date:

Monday, February 4, 2013

  Actual Average Record
Temperature  
Mean Temperature 32 °F -  
Max Temperature 39 °F 32 °F 51 °F (1967)
Min Temperature 24 °F 14 °F -16 °F (1989)
Degree Days  
Heating Degree Days 34    
Moisture  
Dew Point 24 °F    
Average Humidity 83    
Maximum Humidity 90    
Minimum Humidity 69    
Precipitation  
Precipitation 0.00 in - - ()
Sea Level Pressure  
Sea Level Pressure 29.93 in    
Wind  
Wind Speed 11 mph (NW)    
Max Wind Speed 24 mph    
Max Gust Speed 30 mph    
Visibility 10 miles    
Events      
Averages and records for this station are not official NWS values.
T = Trace of Precipitation, MM = Missing Value Source: NWS Daily Summary

Daily Weather History Graph

Daily Weather History Graph

Search for Another Location

Airport:

Trip Planner

Search our weather history database for the weather conditions in past years. The results will help you decide how hot, cold, wet, or windy it might be!

Date:

Astronomy

Feb. 04, 2013 Rise Set
Actual Time 7:34 AM CST 5:47 PM CST
Civil Twilight 7:05 AM CST 6:16 PM CST
Nautical Twilight 6:32 AM CST 6:48 PM CST
Astronomical Twilight 6:00 AM CST 7:21 PM CST
Moon 2:11 AM CST (2/4) 12:10 PM CST (2/4)
Length of Visible Light 11h 10m
Length of Day
10h 13m
Last Quarter, 37% of the Moon is Illuminated
Feb 4
Last Quarter
Feb 10
New
Feb 17
First Quarter
Feb 25
Full
Mar 4
Last Quarter

Hourly Weather History & Observations

Time (CST) Temp. Windchill Dew Point Humidity Pressure Visibility Wind Dir Wind Speed Gust Speed Precip Events Conditions
12:15 AM 39.4 °F 32.7 °F 30.7 °F 71% 29.76 in 10.0 mi WSW 10.4 mph - N/A   Clear
12:35 AM 39.2 °F 33.0 °F 30.4 °F 71% 29.77 in 10.0 mi WSW 9.2 mph - N/A   Clear
12:55 AM 39.0 °F 31.8 °F 30.6 °F 72% 29.77 in 10.0 mi WSW 11.5 mph - N/A   Clear
1:15 AM 39.2 °F 32.0 °F 30.6 °F 71% 29.76 in 10.0 mi WSW 11.5 mph - N/A   Clear
1:35 AM 39.2 °F 32.0 °F 30.7 °F 72% 29.76 in 10.0 mi West 11.5 mph - N/A   Clear
1:55 AM 38.8 °F 33.2 °F 30.6 °F 72% 29.77 in 10.0 mi West 8.1 mph - N/A   Clear
2:15 AM 38.5 °F 31.6 °F 30.2 °F 72% 29.78 in 10.0 mi NW 10.4 mph - N/A   Clear
2:35 AM 39.2 °F 32.0 °F 29.7 °F 69% 29.78 in 10.0 mi NW 11.5 mph - N/A   Clear
2:55 AM 38.5 °F 30.3 °F 29.3 °F 70% 29.79 in 10.0 mi NW 13.8 mph - N/A   Clear
3:15 AM 37.8 °F 29.4 °F 29.1 °F 71% 29.80 in 10.0 mi NNW 13.8 mph 20.7 mph N/A   Clear
4:55 AM 30.4 °F 19.1 °F 27.3 °F 88% 29.87 in 10.0 mi North 16.1 mph 24.2 mph N/A   Scattered Clouds
5:15 AM 29.1 °F 17.1 °F 26.4 °F 90% 29.89 in 10.0 mi North 17.3 mph - N/A   Mostly Cloudy
5:35 AM 28.2 °F 15.5 °F 25.3 °F 89% 29.90 in 10.0 mi North 18.4 mph 23.0 mph N/A   Overcast
5:55 AM 26.8 °F 11.9 °F 23.5 °F 88% 29.92 in 10.0 mi North 24.2 mph 29.9 mph N/A   Overcast
6:15 AM 25.9 °F 12.5 °F 23.4 °F 90% 29.93 in 10.0 mi North 18.4 mph - N/A   Overcast
6:35 AM 24.8 °F 9.6 °F 21.9 °F 89% 29.94 in 10.0 mi North 23.0 mph 27.6 mph N/A   Overcast
6:55 AM 24.3 °F - 21.6 °F 89% 29.94 in 10.0 mi North - - N/A   Overcast
7:15 AM 24.1 °F 9.4 °F 21.4 °F 89% 29.96 in 10.0 mi North 20.7 mph - N/A   Overcast
7:35 AM 24.4 °F 11.5 °F 21.7 °F 89% 29.96 in 10.0 mi North 16.1 mph 27.6 mph N/A   Overcast
7:55 AM 24.4 °F 10.6 °F 21.7 °F 89% 29.97 in 10.0 mi North 18.4 mph 21.9 mph N/A   Overcast
8:15 AM 24.8 °F 12.4 °F 22.1 °F 89% 29.97 in 10.0 mi North 15.0 mph 20.7 mph N/A   Overcast
8:35 AM 25.0 °F 14.2 °F 22.3 °F 89% 29.98 in 10.0 mi North 11.5 mph - N/A   Overcast
8:55 AM 25.2 °F 13.9 °F 22.1 °F 88% 29.99 in 10.0 mi North 12.7 mph - N/A   Overcast
9:15 AM 25.2 °F 13.9 °F 21.9 °F 87% 30.00 in 10.0 mi North 12.7 mph - N/A   Overcast
9:35 AM 25.2 °F 14.4 °F 22.1 °F 88% 30.00 in 10.0 mi NNW 11.5 mph - N/A   Overcast
9:55 AM 25.7 °F 15.1 °F 22.3 °F 87% 30.02 in 10.0 mi North 11.5 mph - N/A   Overcast
10:15 AM 25.5 °F 13.8 °F 21.9 °F 86% 30.02 in 10.0 mi North 13.8 mph - N/A   Overcast
10:35 AM 25.7 °F 15.7 °F 21.9 °F 86% 30.02 in 10.0 mi NNW 10.4 mph - N/A   Overcast
10:55 AM 25.7 °F 16.4 °F 21.9 °F 86% 30.03 in 10.0 mi North 9.2 mph - N/A   Overcast
11:15 AM 26.1 °F 16.2 °F 21.9 °F 84% 30.03 in 10.0 mi North 10.4 mph - N/A   Overcast
11:35 AM 25.5 °F 15.5 °F 21.0 °F 83% 30.03 in 10.0 mi North 10.4 mph - N/A   Overcast
11:55 AM 25.7 °F 16.4 °F 21.6 °F 84% 30.02 in 10.0 mi North 9.2 mph - N/A   Overcast
12:15 PM 25.7 °F 17.1 °F 21.6 °F 84% 30.02 in 10.0 mi North 8.1 mph - N/A   Overcast
12:35 PM 25.7 °F 15.7 °F 21.2 °F 83% 30.00 in 10.0 mi North 10.4 mph - N/A   Overcast
12:55 PM 25.7 °F 19.0 °F 21.0 °F 82% 30.00 in 10.0 mi North 5.8 mph - N/A   Overcast
1:15 PM 25.9 °F 18.2 °F 21.2 °F 82% 30.00 in 10.0 mi North 6.9 mph - N/A   Overcast
1:35 PM 25.7 °F 19.0 °F 20.7 °F 81% 30.00 in 10.0 mi North 5.8 mph - N/A   Overcast
1:55 PM 26.1 °F 18.4 °F 21.0 °F 81% 30.00 in 10.0 mi North 6.9 mph - N/A   Overcast
2:15 PM 25.9 °F 21.7 °F 20.8 °F 81% 29.99 in 10.0 mi North 3.5 mph - N/A   Overcast
2:35 PM 25.7 °F 21.5 °F 21.0 °F 82% 29.98 in 10.0 mi North 3.5 mph - N/A   Overcast
2:55 PM 26.1 °F 21.9 °F 21.0 °F 81% 29.98 in 10.0 mi NNW 3.5 mph - N/A   Overcast
3:15 PM 26.1 °F - 21.0 °F 81% 29.98 in 10.0 mi Calm Calm - N/A   Overcast
3:35 PM 26.2 °F - 20.8 °F 80% 29.98 in 10.0 mi Calm Calm - N/A   Overcast
3:55 PM 26.4 °F - 20.8 °F 79% 29.97 in 10.0 mi Calm Calm - N/A   Overcast
4:15 PM 26.4 °F - 21.0 °F 80% 29.96 in 10.0 mi Calm Calm - N/A   Overcast
4:35 PM 26.2 °F - 21.0 °F 81% 29.95 in 10.0 mi Calm Calm - N/A   Overcast
4:55 PM 26.4 °F - 21.0 °F 80% 29.95 in 10.0 mi Calm Calm - N/A   Overcast
5:15 PM 26.2 °F - 21.2 °F 81% 29.94 in 10.0 mi Calm Calm - N/A   Overcast
5:35 PM 26.2 °F - 21.2 °F 81% 29.93 in 10.0 mi Calm Calm - N/A   Overcast
5:55 PM 26.1 °F 21.9 °F 21.6 °F 83% 29.94 in 10.0 mi SSW 3.5 mph - N/A   Overcast
6:15 PM 25.9 °F - 21.6 °F 84% 29.93 in 10.0 mi Calm Calm - N/A   Overcast
6:35 PM 26.1 °F 21.9 °F 21.7 °F 84% 29.94 in 10.0 mi South 3.5 mph - N/A   Overcast
6:55 PM 26.4 °F 19.8 °F 22.3 °F 84% 29.95 in 10.0 mi SSW 5.8 mph - N/A   Overcast
7:15 PM 26.4 °F 20.9 °F 22.1 °F 84% 29.95 in 10.0 mi SSW 4.6 mph - N/A   Overcast
7:35 PM 26.6 °F 18.2 °F 22.5 °F 84% 29.94 in 10.0 mi SSW 8.1 mph - N/A   Overcast
7:55 PM 26.6 °F 16.8 °F 22.6 °F 85% 29.93 in 10.0 mi South 10.4 mph - N/A   Overcast
8:15 PM 26.6 °F 15.7 °F 22.8 °F 86% 29.92 in 10.0 mi South 12.7 mph - N/A   Overcast
8:35 PM 26.6 °F 16.2 °F 23.0 °F 86% 29.91 in 10.0 mi South 11.5 mph - N/A   Overcast
8:55 PM 26.6 °F 16.8 °F 23.0 °F 86% 29.89 in 10.0 mi SSE 10.4 mph - N/A   Overcast
9:15 PM 27.1 °F 17.5 °F 23.7 °F 87% 29.89 in 10.0 mi South 10.4 mph - N/A   Overcast
9:35 PM 27.3 °F 17.7 °F 23.9 °F 87% 29.90 in 10.0 mi South 10.4 mph - N/A   Overcast
9:55 PM 27.5 °F 17.4 °F 24.1 °F 87% 29.89 in 10.0 mi South 11.5 mph - N/A   Overcast
10:15 PM 27.5 °F 18.0 °F 24.4 °F 88% 29.89 in 10.0 mi South 10.4 mph - N/A   Overcast
10:35 PM 27.5 °F 18.6 °F 24.6 °F 89% 29.89 in 7.0 mi South 9.2 mph - N/A   Overcast
10:55 PM 27.5 °F 17.4 °F 24.6 °F 89% 29.88 in 10.0 mi South 11.5 mph - N/A   Overcast
11:15 PM 27.5 °F 18.6 °F 24.8 °F 90% 29.87 in 10.0 mi South 9.2 mph - N/A   Overcast
11:35 PM 27.5 °F 21.1 °F 24.8 °F 90% 29.87 in 10.0 mi South 5.8 mph - N/A   Overcast
11:55 PM 27.7 °F 19.6 °F 25.0 °F 90% 29.87 in 10.0 mi SSW 8.1 mph - N/A   Overcast